Regional Weather Roundup
Issued by NWS

Home | Current Version | Previous Version | Text Only | Print | Product List | Glossary Off
Versions: 1 2 3 4 5 6 7 8 9 10 11 12 13 14 15 16 17 18 19 20 21 22 23 24 25 26 27 28 29 30 31 32 33 34 35 36 37 38 39 40 41 42 43 44 45 46 47 48 49 50

000
ASUS44 KMEG 270110
RWRTN
TENNESSEE HOURLY STATE WEATHER ROUNDUP
NATIONAL WEATHER SERVICE MEMPHIS TN
800 PM CDT TUE AUG 26 2014

TNZ002-004-019-021-049-052-054-088>092-270200-
WEST TENNESSEE

CITY           SKY/WX    TMP DP  RH WIND       PRES   REMARKS
MEMPHIS INTL   PTCLDY    87  70  56 SE7       30.04R HX  92
NWS MEMPHIS      N/A     84 N/A N/A MISG        N/A
JACKSON        PTCLDY    78  75  90 CALM      30.05R
DYERSBURG      MOCLDY    75  64  69 CALM      30.05S
UNION CITY     CLEAR     75  73  94 E3        30.05R
PARIS          CLOUDY    72  72 100 CALM      30.07F
HUNTINGDON     PTCLDY    78  74  87 N6        30.07R
LEXINGTON      CLEAR     77  73  88 CALM      30.05S
SAVANNAH       CLEAR     75  73  94 CALM      30.07R
$$

TNZ008-025-027-028-033-062-065-066-270200-
NORTH MIDDLE TENNESSEE

CITY           SKY/WX    TMP DP  RH WIND       PRES   REMARKS
NASHVILLE      PTCLDY    80  69  69 CALM      30.08R
DICKSON        CLEAR     77  73  88 CALM      30.08R
PORTLAND       CLEAR     79  73  83 CALM      30.08R
CLARKSVILLE    MOCLDY    78  74  87 CALM      30.06S
LEBANON        CLEAR     79  70  74 CALM      30.06R
SMYRNA         CLEAR     79  70  74 CALM      30.08R
MURFREESBORO   CLEAR     80  69  69 SE3       30.07R
COOKEVILLE     CLEAR     73  72  94 CALM      30.10R
GALLATIN       CLEAR     81  74  79 CALM      30.09R
CROSSVILLE     CLEAR     73  67  81 CALM      30.15R
$$

TNZ061-075-076-078-094-096-097-270200-
SOUTH MIDDLE TENNESSEE

CITY           SKY/WX    TMP DP  RH WIND       PRES   REMARKS
LEWISBURG      CLEAR     75  70  85 CALM      30.07S
FAYETTEVILLE   CLEAR     73  66  78 N5        30.09R
TULLAHOMA      PTCLDY    75  68  78 CALM      30.11R
WINCHESTER     CLEAR     73  70  88 CALM      30.09S
MCMINNVILLE    CLEAR     75  73  94 CALM      30.10S
COLUMBIA       CLEAR     77  72  83 SE3       30.07R
SHELBYVILLE    CLEAR     75  72  88 CALM      30.10R
$$

TNZ017-018-042-046-047-270200-
NORTHEAST TENNESSEE

CITY           SKY/WX    TMP DP  RH WIND       PRES   REMARKS
TRI CITIES     PTCLDY    70  61  73 N6        30.13R
ELIZABETHTON   CLEAR     64  59  82 CALM      30.14R
$$

TNZ012-013-036-069-073-074-270200-
CENTRAL EAST TENNESSEE

CITY           SKY/WX    TMP DP  RH WIND       PRES   REMARKS
KNOXVILLE      PTCLDY    77  65  66 NE5       30.08R
OAK RIDGE      CLEAR     77  69  76 CALM      30.11R
GATLINBURG     CLEAR     73  63  68 CALM      30.09S
MORRISTOWN     CLEAR     73  64  73 CALM      30.13R
$$

TNZ083-085-099-270200-
SOUTHEAST TENNESSEE

CITY           SKY/WX    TMP DP  RH WIND       PRES   REMARKS
CHATTANOOGA    PTCLDY    82  64  54 NE5       30.07S
$$

SKY/WX REPORTED AS FAIR MEANS FEW OR NO CLOUDS BELOW
12 THOUSAND FEET.




USA.gov is the U.S. government's official web portal to all federal, state and local government web resources and services.